FW2417 Weather Reports


Display with metric or nautical units.
time (UTC)temp
F
wind
direction
speed
MPH
gust
MPH
rain 1hr
in
rain 24hr
in
rain mn
in
humidity
%
barometer
mb
20260904174543 99 219 1.0 8.0 0.00 0.00 0.00 41 1017.1
20260904173038 103 249 0.0 3.0 0.00 0.00 0.00 28 1017.1
20260904171513 104 292 0.0 2.0 0.00 0.00 0.00 27 1017.0
20260904170007 105 332 0.0 2.0 0.00 0.00 0.00 25 1017.0
20260904164502 105 225 0.0 1.0 0.00 0.00 0.00 25 1017.1
20260904163110 105 225 0.0 1.0 0.00 0.00 0.00 25 1017.2
20260904161616 105 329 0.0 2.0 0.00 0.00 0.00 26 1017.3
20260904160057 104 253 0.0 4.0 0.00 0.00 0.00 26 1017.4
20260904154555 105 259 0.0 2.0 0.00 0.00 0.00 26 1017.4
20260904153003 103 351 0.0 3.0 0.00 0.00 0.00 27 1017.5
20260904151501 104 229 0.0 3.0 0.00 0.00 0.00 27 1017.6
20260904150113 103 231 0.0 2.0 0.00 0.00 0.00 28 1017.9
20260904144622 102 346 0.0 3.0 0.00 0.00 0.00 29 1018.1
20260904143106 102 30 0.0 2.0 0.00 0.00 0.00 30 1018.4
20260904141605 101 288 0.0 5.0 0.00 0.00 0.00 31 1018.6
20260904140055 99 20 0.0 2.0 0.00 0.00 0.00 33 1018.8
20260904134553 98 96 0.0 5.0 0.00 0.00 0.00 36 1019.0
20260904133047 97 82 0.0 2.0 0.00 0.00 0.00 38 1019.1
20260904131547 97 50 0.0 3.0 0.00 0.00 0.00 39 1019.5
20260904130041 97 88 0.0 1.0 0.00 0.00 0.00 39 1019.8
20260904124549 96 323 2.0 7.0 0.00 0.00 0.00 40 1019.9
20260904123007 95 6 0.0 3.0 0.00 0.00 0.00 42 1020.0
20260904121505 94 82 0.0 2.0 0.00 0.00 0.00 43 1020.1
20260904120136 94 67 1.0 4.0 0.00 0.00 0.00 43 1020.3
20260904114502 93 133 0.0 0.0 0.00 0.00 0.00 46 1020.5
20260904113117 92 80 0.0 2.0 0.00 0.00 0.00 48 1020.6
20260904111615 94 91 0.0 2.0 0.00 0.00 0.00 46 1020.9
20260904110109 91 345 0.0 2.0 0.00 0.00 0.00 51 1021.1
20260904104613 90 53 0.0 0.0 0.00 0.00 0.00 54 1021.3
20260904103107 88 308 0.0 1.0 0.00 0.00 0.00 56 1021.7
20260904101601 86 297 0.0 4.0 0.00 0.00 0.00 59 1021.7
20260904100104 86 326 0.0 2.0 0.00 0.00 0.00 61 1021.7
20260904094614 86 92 0.0 2.0 0.00 0.00 0.00 61 1021.8
20260904093110 86 257 0.0 0.0 0.00 0.00 0.00 62 1021.8
20260904091616 85 257 0.0 0.0 0.00 0.00 0.00 64 1021.9
20260904090108 83 257 0.0 0.0 0.00 0.00 0.00 66 1021.9
20260904084617 83 257 0.0 0.0 0.00 0.00 0.00 68 1021.9
20260904083113 82 124 0.0 0.0 0.00 0.00 0.00 68 1021.8
20260904081643 81 124 0.0 1.0 0.00 0.00 0.00 71 1021.7
20260904080111 80 210 0.0 1.0 0.00 0.00 0.00 74 1021.6
20260904074622 78 214 0.0 3.0 0.00 0.00 0.00 78 1021.6
20260904073109 78 174 0.0 3.0 0.00 0.00 0.00 79 1021.5
20260904071611 77 231 0.0 1.0 0.00 0.00 0.00 81 1021.6
20260904070131 76 200 0.0 2.0 0.00 0.00 0.00 82 1021.6
20260904064611 75 229 0.0 1.0 0.00 0.00 0.00 83 1021.4
20260904063108 75 245 0.0 1.0 0.00 0.00 0.00 84 1021.4
20260904061615 75 245 0.0 2.0 0.00 0.00 0.00 83 1021.2
20260904060057 75 225 0.0 2.0 0.00 0.00 0.00 83 1021.0
20260904054555 75 262 0.0 1.0 0.00 0.00 0.00 81 1020.9
20260904053049 75 262 0.0 1.0 0.00 0.00 0.00 81 1021.0
20260904051552 76 250 0.0 3.0 0.00 0.00 0.00 79 1020.9
20260904050043 77 243 0.0 3.0 0.00 0.00 0.00 75 1020.8
20260904044541 77 243 0.0 1.0 0.00 0.00 0.00 74 1020.9
20260904043036 78 259 0.0 1.0 0.00 0.00 0.00 73 1021.0
20260904041536 78 249 0.0 1.0 0.00 0.00 0.00 72 1020.8
20260904040118 78 226 0.0 2.0 0.00 0.00 0.00 70 1020.7
20260904034617 78 235 0.0 5.0 0.00 0.00 0.00 70 1020.6
20260904033110 79 234 0.0 4.0 0.00 0.00 0.00 68 1020.5
20260904031609 80 231 0.0 4.0 0.00 0.00 0.00 66 1020.5
20260904030059 81 248 1.0 5.0 0.00 0.00 0.00 64 1020.3
20260904024604 82 236 1.0 4.0 0.00 0.00 0.00 64 1020.1
20260904023051 82 236 0.0 2.0 0.00 0.00 0.00 63 1019.9
20260904021554 83 231 0.0 2.0 0.00 0.00 0.00 62 1020.1
20260904020043 83 201 0.0 0.0 0.00 0.00 0.00 62 1020.1
20260904014602 83 201 0.0 1.0 0.00 0.00 0.00 62 1020.1
20260904013032 83 202 0.0 2.0 0.00 0.00 0.00 63 1020.3
20260904011541 83 197 0.0 2.0 0.00 0.00 0.00 63 1020.3
20260904010009 83 193 0.0 2.0 0.00 0.00 0.00 63 1020.4
20260904004541 83 163 0.0 3.0 0.00 0.00 0.00 63 1020.6
20260904003034 83 128 1.0 4.0 0.00 0.00 0.00 63 1020.5
20260904001535 84 225 0.0 1.0 0.00 0.00 0.00 62 1020.4
20260904000142 84 224 0.0 2.0 0.00 0.00 0.00 61 1020.5
20260903234617 85 158 0.0 1.0 0.00 0.00 0.00 60 1020.5
20260903233112 85 236 0.0 1.0 0.00 0.00 0.00 60 1020.5
20260903231626 86 236 0.0 1.0 0.00 0.00 0.00 59 1020.4
20260903230105 86 238 0.0 3.0 0.00 0.00 0.00 58 1020.4
20260903224600 86 242 0.0 1.0 0.00 0.00 0.00 58 1020.3
20260903223053 86 242 0.0 1.0 0.00 0.00 0.00 58 1020.2
20260903221554 86 242 0.0 1.0 0.00 0.00 0.00 58 1020.2
20260903220043 87 241 0.0 1.0 0.00 0.00 0.00 58 1020.0
20260903214549 87 284 0.0 1.0 0.00 0.00 0.00 57 1019.9
20260903213039 88 233 0.0 1.0 0.00 0.00 0.00 56 1019.9
20260903211505 89 226 0.0 2.0 0.00 0.00 0.00 55 1020.0
20260903210115 90 248 0.0 1.0 0.00 0.00 0.00 54 1019.7
20260903204615 92 219 0.0 1.0 0.00 0.00 0.00 51 1019.5
20260903203003 93 248 0.0 4.0 0.00 0.00 0.00 49 1019.3
20260903201505 94 240 1.0 6.0 0.00 0.00 0.00 48 1019.0
20260903200113 95 239 1.0 4.0 0.00 0.00 0.00 46 1019.0
20260903194616 96 248 0.0 5.0 0.00 0.00 0.00 44 1018.8
20260903193111 97 212 1.0 8.0 0.00 0.00 0.00 41 1018.6
20260903191611 99 240 1.0 8.0 0.00 0.00 0.00 31 1018.4
20260903190115 102 215 7.0 15.0 0.00 0.00 0.00 25 1018.3
20260903184503 105 49 0.0 1.0 0.00 0.00 0.00 17 1017.9
20260903183113 105 49 0.0 1.0 0.00 0.00 0.00 16 1017.9
20260903181609 106 46 0.0 1.0 0.00 0.00 0.00 16 1017.9
20260903180100 108 25 0.0 1.0 0.00 0.00 0.00 16 1017.9